Showing default

TIROS 6, 397

Orbit data source: Space-Track

TIROS 6, 397 is a payload satellite owned by GSFC (US) in LEO that was launched on Tue, 18 Sep 1962 UTC via a THOR DELTA launch vehicle from the Air Force Eastern Test Range (AFETR). Payloads include a variety of satellites, spacecraft, and rockets equipped with specific instruments for various scientific and technological missions. These include communications satellites like Starlink; space stations such as the ISS; scientific satellites like the Hubble; Earth observation satellites from companies like Planet Labs, Umbra, and HawkEye 360; GPS; miniature CubeSats for education and research; and military/defense satellites.

Loading next visibility...
TIROS 6 details
Identifier
397, 1962-047A
Orbit
LEO
Last TLE update14 hours ago
Origin
Flag of USGSFC (US)
ManufacturerRCA/East Windsor
MissionNon-operational Civil Weather
Bus & MotorTIROS, Unknown motor
Mass127 kg wet, 127 kg dry
Launch date (UTC)
1962-09-18 (62 years ago)
Launch vehicle
THOR DELTA
Launch site
Air Force Eastern Test Range (AFETR)
Object type
Payload
Rocket body
Debris
Shape & HBRCyl, 1.07 m
Radar Cross Section0.920 m², Medium (>0.1 m² and < 1m²)

Expand to show TLE details & history

TLE from 14 hours ago
0 TIROS 6
1 00397U 62047A   25014.59223152  .00002230  00000-0  23044-3 0  9992
2 00397  58.3044 104.0675 0011438 133.5667 226.6331 14.93670845334770
Epoch: 2025-01-14T14:12Z
Definitive object data (Epoch: 2025-01-14T14:12:48.803Z)
Latitude-0.00007°
Longitude136.56739°
Altitude593.389 km
Speed7.561 km/s
True Right ascension06h 56m 16s
True Declination0° 00' 00"
Sunlit
Object was in full shadow at TLE epoch
Visualization TLE readout
Latitude-56.56485°
Longitude65.84525°
Altitude613.51 km
Speed7.548 km/s
Apparent Right ascension20h 25m 51s
Apparent Declination-71° 53' 08"
Sunlit
Object is in daylight
Visualization observer readout
Local Sidereal Time04:58:15
Azimuth201.99° SSW
Elevation-49.201°
Doppler factor1
Orbital elements
Apogee altitude593.928 km
Perigee altitude577.997 km
Semi-major axis6,964.099 km
Eccentricity0.0011438
Inclination58.3044°
RAAN104.0675°
Arg. of periapsis133.5667°
True anomaly226.53791°
Mean anomaly226.6331°
Eccentric anomaly226.5855°
Mean motion3.73461 °/min
BSTAR0.00023044
Orbital period96.4 mins
Loading maneuver chart data...
Loading historical data...
Loading historical data...
Loading historical data...
Loading historical data...
Loading historical data...
Loading historical data...
Loading historical data...

TIROS 6 Visibility forecast

Observer location: undefined°, undefined

Span
Click to sort rows by Start time (UTC) header in descending order
Start Az.
Max El. time (UTC)
Max El. Az.
Max El.
End time (UTC)
End Az.
8 mins2025-01-15 08:02:13.596Z217.939° SW2025-01-15 08:06:13.596Z67.701° E44.393°2025-01-15 08:10:13.596Z42.824° NE
5 mins2025-01-15 14:49:13.596Z356.453° N2025-01-15 14:51:13.596Z38.922° NE24.557°2025-01-15 14:54:13.596Z91.867° ESE
6 mins2025-01-15 16:28:13.596Z297.669° NW2025-01-15 16:31:13.596Z231.183° WSW32.659°2025-01-15 16:34:13.596Z170.686° S
|